This is the latest recevied weather packets stored in our database for station/object KD8PH. If no packets are shown the sender has not sent any weather packets the latest 10 day(s).
| Time | Temp. | Humidity | Pressure | Rain* | Wind** | Luminosity | Snow |
|---|---|---|---|---|---|---|---|
| 1777919742 | 23.33° C | 50% | 1013.4 hPa | 0 mm | - | - | - |
| 1777919139 | 22.78° C | 51% | 1013.5 hPa | 0 mm | - | - | - |
| 1777918543 | 22.78° C | 53% | 1013.7 hPa | 0 mm | - | - | - |
| 1777917946 | 22.22° C | 51% | 1013.8 hPa | 0 mm | - | - | - |
| 1777917338 | 22.22° C | 53% | 1014 hPa | 0 mm | - | - | - |
| 1777916738 | 22.22° C | 52% | 1014.1 hPa | 0 mm | - | - | - |
| 1777916139 | 22.22° C | 53% | 1014.2 hPa | 0 mm | - | - | - |
| 1777915540 | 22.22° C | 55% | 1014.2 hPa | 0 mm | - | - | - |
| 1777914944 | 21.67° C | 54% | 1014.4 hPa | 0 mm | - | - | - |
| 1777914353 | 21.67° C | 54% | 1014.5 hPa | 0 mm | - | - | - |
| 1777913744 | 21.67° C | 55% | 1014.7 hPa | 0 mm | - | - | - |
| 1777913147 | 21.11° C | 56% | 1014.9 hPa | 0 mm | - | - | - |
| 1777912546 | 21.11° C | 53% | 1015 hPa | 0 mm | - | - | - |
| 1777911936 | 21.11° C | 54% | 1015.1 hPa | 0 mm | - | - | - |
| 1777911334 | 21.11° C | 56% | 1015.2 hPa | 0 mm | - | - | - |
| 1777910737 | 20.56° C | 54% | 1015.2 hPa | 0 mm | - | - | - |
| 1777910140 | 20° C | 54% | 1015.3 hPa | 0 mm | - | - | - |
| 1777909535 | 20° C | 54% | 1015.4 hPa | 0 mm | - | - | - |
| 1777908948 | 19.44° C | 55% | 1015.4 hPa | 0 mm | - | - | - |
| 1777908336 | 19.44° C | 57% | 1015.5 hPa | 0 mm | - | - | - |
| 1777907741 | 18.89° C | 59% | 1015.6 hPa | 0 mm | - | - | - |
| 1777907139 | 18.33° C | 59% | 1015.5 hPa | 0 mm | - | - | - |
| 1777906534 | 18.33° C | 59% | 1015.7 hPa | 0 mm | - | - | - |
| 1777905938 | 17.78° C | 60% | 1015.7 hPa | 0 mm | - | - | - |
| 1777905337 | 17.78° C | 61% | 1015.8 hPa | 0 mm | - | - | - |
* Rain latest hour (hover to see other rain measurements)
** Current wind speed in m/s (hover to see current wind gust speed)